{"data":{"norad_id":43565,"epoch":"2026-09-19T03:18:54.661824Z","epoch_age_seconds":135775,"freshness":"FRESH","line1":"1 43565U 18060B   26262.13813266 -.00000092  00000+0  00000+0 0  9996","line2":"2 43565  57.1349 339.2474 0006474 251.3713 108.6116  1.70475875 50810","mean_motion":1.70475875,"eccentricity":0.0006474,"inclination_deg":57.1349,"raan_deg":339.2474,"arg_perigee_deg":251.3713,"mean_anomaly_deg":108.6116,"bstar":0,"rev_number":5081,"period_min":844.69430058652,"perigee_km":23202.80290862,"apogee_km":23241.129122005,"semimajor_km":29600.103015313,"source":"CELESTRAK","updated_at":"2026-09-20T09:00:46.497198Z"}}